Szeged, Hungary

7:16 AM CET on February 25, 2017 (GMT +0100)
Szeged

Weather History for LHUD - January, 2013

Change the Weather History Date:

Saturday, January 12, 2013

  Actual Average (LRAR) Record (LRAR)
Temperature  
Mean Temperature 26 °F -  
Max Temperature 34 °F 37 °F 53 °F (2007)
Min Temperature 19 °F 25 °F -11 °F (2003)
Degree Days  
Heating Degree Days 38    
Moisture  
Dew Point 21 °F    
Average Humidity 76    
Maximum Humidity 93    
Minimum Humidity 48    
Precipitation  
Precipitation 0.00 in 0.04 in - ()
Sea Level Pressure  
Sea Level Pressure 30.08 in    
Wind  
Wind Speed 5 mph ()    
Max Wind Speed 12 mph    
Max Gust Speed -    
Visibility 9.0 miles    
Events      
Averages and records for this station are not official NWS values.
T = Trace of Precipitation, MM = Missing Value Source: Averaged Metar Reports

Daily Weather History Graph

Daily Weather History Graph

Search for Another Location

Airport or City:

Trip Planner

Search our weather history database for the weather conditions in past years. The results will help you decide how hot, cold, wet, or windy it might be!

Date:

Astronomy

Jan. 12, 2013 Rise Set
Actual Time 7:19 AM CET 4:16 PM CET
Civil Twilight 6:46 AM CET 4:50 PM CET
Nautical Twilight 6:08 AM CET 5:27 PM CET
Astronomical Twilight 5:32 AM CET 6:03 PM CET
Moon 7:20 AM CET (1/12) 5:29 PM CET (1/12)
Length of Visible Light 10h 04m
Length of Day
8h 56m
New Moon, 1% of the Moon is Illuminated
Jan 12
New Moon
Jan 19
First Quarter
Jan 27
Full
Feb 3
Last Quarter
Feb 10
New

Hourly Weather History & Observations

Time (CET) Temp. Windchill Dew Point Humidity Pressure Visibility Wind Dir Wind Speed Gust Speed Precip Events Conditions
12:45 AM 28.4 °F 20.4 °F 23.0 °F 80% 30.01 in - WNW 8.1 mph - N/A   Clear
1:00 AM 28 °F - 22 °F 72% 30.03 in 19 mi WNW 6.7 mph - -   Partly Cloudy
1:45 AM 26.6 °F 19.1 °F 21.2 °F 80% 30.04 in - WNW 6.9 mph - N/A   Clear
2:45 AM 24.8 °F - 21.2 °F 86% 30.04 in - WNW 2.3 mph - N/A   Clear
3:45 AM 26.6 °F 19.1 °F 21.2 °F 80% 30.04 in - WNW 6.9 mph - N/A   Clear
4:45 AM 24.8 °F 16.9 °F 21.2 °F 86% 30.04 in - WNW 6.9 mph - N/A   Clear
5:15 AM 23.0 °F 17.0 °F 19.4 °F 86% 30.04 in - West 4.6 mph - N/A   Clear
5:45 AM 23.0 °F - 19.4 °F 86% 30.04 in - Calm Calm - N/A   Clear
6:15 AM 23.0 °F 17.0 °F 19.4 °F 86% 30.06 in - West 4.6 mph - N/A   Clear
6:45 AM 23.0 °F - 19.4 °F 86% 30.06 in - West 2.3 mph - N/A   Clear
7:00 AM 22 °F - 19 °F 83% 30.09 in 19 mi West 2.2 mph - -   Partly Cloudy
7:15 AM 23.0 °F - 19.4 °F 86% 30.06 in - WNW 2.3 mph - N/A   Clear
7:45 AM 19.4 °F 14.3 °F 17.6 °F 93% 30.06 in - SSW 3.5 mph - N/A   Clear
8:15 AM 21.2 °F 13.6 °F 17.6 °F 86% 30.09 in - SW 5.8 mph - N/A   Clear
8:45 AM 26.6 °F 20.0 °F 21.2 °F 80% 30.09 in 6.2 mi SW 5.8 mph - N/A   Partly Cloudy
9:15 AM 28.4 °F 19.7 °F 21.2 °F 74% 30.09 in - WSW 9.2 mph - N/A   Clear
9:45 AM 28.4 °F 19.1 °F 23.0 °F 80% 30.09 in - WSW 10.4 mph - N/A   Clear
10:15 AM 30.2 °F 20.8 °F 23.0 °F 75% 30.09 in - WSW 11.5 mph - N/A   Clear
10:45 AM 30.2 °F 21.3 °F 23.0 °F 75% 30.09 in - WSW 10.4 mph - N/A   Clear
11:15 AM 32.0 °F 24.8 °F 23.0 °F 69% 30.09 in - West 8.1 mph - N/A   Clear
11:45 AM 32.0 °F 24.2 °F 23.0 °F 69% 30.09 in 6.2 mi West 9.2 mph - N/A   Partly Cloudy
12:15 PM 32.0 °F 24.8 °F 23.0 °F 69% 30.09 in 6.2 mi West 8.1 mph - N/A   Partly Cloudy
12:45 PM 33.8 °F 25.8 °F 21.2 °F 60% 30.09 in 6.2 mi West 10.4 mph - N/A   Partly Cloudy
1:00 PM 33 °F - 21 °F 48% 30.10 in 37 mi West 8.9 mph - -   Partly Cloudy
1:15 PM 33.8 °F 27.0 °F 21.2 °F 60% 30.09 in 6.2 mi West 8.1 mph - N/A   Scattered Clouds
1:45 PM 33.8 °F 28.6 °F 23.0 °F 65% 30.09 in 6.2 mi WSW 5.8 mph - N/A   Scattered Clouds
2:15 PM 33.8 °F 27.0 °F 21.2 °F 60% 30.09 in 6.2 mi West 8.1 mph - N/A   Mostly Cloudy
2:45 PM 33.8 °F 28.6 °F 21.2 °F 60% 30.09 in - WNW 5.8 mph - N/A   Clear
3:15 PM 33.8 °F 27.0 °F 23.0 °F 65% 30.09 in - WNW 8.1 mph - N/A   Clear
3:45 PM 33.8 °F 30.8 °F 21.2 °F 60% 30.09 in - West 3.5 mph - N/A   Clear
4:15 PM 32.0 °F 28.7 °F 23.0 °F 69% 30.09 in - West 3.5 mph - N/A   Clear
4:45 PM 30.2 °F - 21.2 °F 69% 30.09 in - Calm Calm - N/A   Clear
5:15 PM 28.4 °F - 23.0 °F 80% 30.09 in - SE 2.3 mph - N/A   Clear
5:45 PM 28.4 °F 24.6 °F 21.2 °F 74% 30.12 in - SSE 3.5 mph - N/A   Clear
6:15 PM 28.4 °F - 21.2 °F 74% 30.09 in - SSE 2.3 mph - N/A   Clear
6:45 PM 26.6 °F 22.6 °F 21.2 °F 80% 30.09 in - SE 3.5 mph - N/A   Clear
7:00 PM 26 °F - 21 °F 72% 30.12 in 22 mi SE 4.5 mph - -   Partly Cloudy
7:15 PM 26.6 °F 21.2 °F 21.2 °F 80% 30.09 in - SE 4.6 mph - N/A   Clear
7:45 PM 26.6 °F 22.6 °F 21.2 °F 80% 30.09 in - ESE 3.5 mph - N/A   Clear
8:15 PM 26.6 °F 21.2 °F 21.2 °F 80% 30.09 in - SSE 4.6 mph - N/A   Clear
8:45 PM 26.6 °F 21.2 °F 23.0 °F 86% 30.12 in - SE 4.6 mph - N/A   Clear
9:45 PM 26.6 °F - 23.0 °F 86% 30.12 in - ESE 2.3 mph - N/A   Clear
10:45 PM 26.6 °F 20.0 °F 23.0 °F 86% 30.12 in - SSE 5.8 mph - N/A   Clear
11:45 PM 26.6 °F 22.6 °F 23.0 °F 86% 30.12 in - SE 3.5 mph - N/A   Clear